* Astronomy

Members Login
Username 
 
Password 
    Remember Me  
Post Info TOPIC: Asteroid 2011 CL33


L

Posts: 131433
Date:
RE: Asteroid 2011 CL33
Permalink  
 


Object
Name
Close
Approach
Date
Miss
Distance
(AU)
Miss
Distance
(LD)
Estimated
Diameter*
H
(mag)
Relative
Velocity
(km/s)
(2011 CL33) 2011-Feb-09 0.0328 12.8 18 m - 40 m 25.9 4.18


__________________


L

Posts: 131433
Date:
Permalink  
 

Orbital elements:
2011 CL33 Earth MOID = 0.0157 AU
Epoch 2011 Feb. 8.0 TT = JDT 2455600.5 MPC
M 356.85933 (2000.0) P Q
n 0.61832311 Peri. 168.78179 -0.82331825 -0.56687544
a 1.3645592 Node 336.61677 +0.51507658 -0.72530668
e 0.2655114 Incl. 4.08496 +0.23841809 -0.39061805
P 1.59 H 25.9 G 0.15 U 8

MPEC 2011 - C65


__________________
Page 1 of 1  sorted by
 
Quick Reply

Please log in to post quick replies.



Create your own FREE Forum
Report Abuse
Powered by ActiveBoard